TimeEST,TemperatureF,Dew PointF,Humidity,Sea Level PressureIn,VisibilityMPH,Wind Direction,Wind SpeedMPH,Gust SpeedMPH,PrecipitationIn,Events,Conditions,WindDirDegrees,DateUTC
12:51 AM,19.0,14.0,81,30.40,-9999.0,NNE,35.7,44.9,N/A,,Unknown,30,2013-11-23 05:51:00
1:51 AM,18.0,12.9,81,30.43,-9999.0,NNE,31.1,39.1,N/A,,Unknown,20,2013-11-23 06:51:00
2:51 AM,17.1,14.0,88,30.45,-9999.0,NNE,31.1,39.1,N/A,,Unknown,20,2013-11-23 07:51:00
3:51 AM,16.0,12.0,84,30.47,-9999.0,North,32.2,41.4,N/A,,Unknown,10,2013-11-23 08:51:00
4:51 AM,16.0,12.0,84,30.51,-9999.0,NNE,26.5,39.1,N/A,,Unknown,20,2013-11-23 09:51:00
5:51 AM,15.1,10.9,84,30.53,-9999.0,NNE,27.6,36.8,N/A,,Unknown,20,2013-11-23 10:51:00
6:51 AM,15.1,10.0,80,30.55,-9999.0,NNE,29.9,40.3,N/A,,Unknown,20,2013-11-23 11:51:00
7:51 AM,14.0,10.9,88,30.56,-9999.0,NNE,34.5,41.4,N/A,,Unknown,20,2013-11-23 12:51:00
8:51 AM,15.1,10.9,84,30.58,-9999.0,NNE,29.9,41.4,N/A,,Unknown,20,2013-11-23 13:51:00
9:51 AM,15.1,10.0,80,30.60,-9999.0,NNE,29.9,39.1,N/A,,Unknown,20,2013-11-23 14:51:00
10:51 AM,17.1,10.9,77,30.62,-9999.0,NNE,26.5,34.5,N/A,,Unknown,30,2013-11-23 15:51:00
11:51 AM,16.0,10.9,81,30.63,-9999.0,NNE,24.2,36.8,N/A,,Unknown,20,2013-11-23 16:51:00
12:51 PM,16.0,9.0,74,30.63,-9999.0,NNE,23.0,41.4,N/A,,Unknown,30,2013-11-23 17:51:00
1:51 PM,15.1,9.0,77,30.63,-9999.0,NNE,25.3,35.7,N/A,,Unknown,20,2013-11-23 18:51:00
2:51 PM,16.0,8.1,71,30.63,-9999.0,North,23.0,31.1,N/A,,Unknown,10,2013-11-23 19:51:00
3:51 PM,16.0,10.0,77,30.62,-9999.0,NNE,29.9,34.5,N/A,,Unknown,20,2013-11-23 20:51:00
4:51 PM,18.0,10.9,74,30.63,-9999.0,North,25.3,33.4,N/A,,Unknown,360,2013-11-23 21:51:00
5:51 PM,17.1,9.0,71,30.63,-9999.0,North,29.9,36.8,N/A,,Unknown,10,2013-11-23 22:51:00
6:51 PM,18.0,10.9,74,30.63,-9999.0,North,27.6,41.4,N/A,,Unknown,360,2013-11-23 23:51:00
7:51 PM,17.1,12.0,81,30.63,-9999.0,North,26.5,35.7,N/A,,Unknown,10,2013-11-24 00:51:00
8:51 PM,16.0,10.9,81,30.63,-9999.0,NNE,32.2,39.1,N/A,,Unknown,30,2013-11-24 01:51:00
9:51 PM,15.1,8.1,74,30.62,-9999.0,NNE,29.9,35.7,N/A,,Unknown,20,2013-11-24 02:51:00
10:51 PM,15.1,10.9,84,30.62,-9999.0,NNE,26.5,33.4,N/A,,Unknown,30,2013-11-24 03:51:00
11:51 PM,14.0,8.1,77,30.62,-9999.0,NNE,23.0,33.4,0.01,,Unknown,20,2013-11-24 04:51:00